Página principal
METAR-TAF:

METAR-TAF

Aeroportos :

Aeródromo Municipal de Cascais (Tires)

Cascais, Portugal

latitude: 38-43-32N, longitude: 009-21-19W, altura: 99 m

Observação actual do tempo

O boletim foi feito há 7 horas e 46 minutos, às 22:00 UTC
Vento 6 kt de norte
Temperatura 15°C
Humidade 88%
Pressão 1013 hPa
Visibilidade 10 km ou mais
Poucas nuvensa uma altura de 1400 ft

METAR: LPCS 252200Z 01006KT 9999 FEW014 15/13 Q1013

Hora: 06:46 (05:46 UTC)


TAF: em falta

Observações e previsões do tempo de mais de 4000 aeroportos (mensagens METAR e TAF).

As estações disponíveis são os pontos amarelos e vermelhos sobre o mapa.

Mova o rato sobre o mapa para ver o nome da estação.

Depois clique no ponto para visualizar as observações e previsões meteorológicas.

Para alterar o mapa : clique nos botões verdes com uma cruz preta para aumentar o zoom; no botão verde com uma pitada de zoom; ou nas setas verdes para mapas adjacentes.


METAR-TAF: